RH
87 73 69 67 64 57 44 22 10 6 6 7 8 10 11 11 11 14 14 12 16 13 20 24 22 19 19 22 23 20 22 20 25 31 39 40 41 36 32 36 35 33 29 30 46
85 84 72 66 65 62 53 33 11 6 7 7 8 10 11 11 19 12 12 12 12 12 14 15 15 16 20 23 23 25 20 23 21 26 36 39 34 37 37 36 34 31 32 40 44
78 78 77 68 63 63 59 45 11 9 9 7 8 11 11 11 12 10 12 12 12 12 14 14 14 17 23 22 24 23 28 28 29 28 31 36 32 31 32 36 29 30 34 40 41
74 73 74 70 64 63 60 51 12 12 10 7 8 11 10 23 14 11 12 14 14 13 15 13 15 24 24 25 24 29 28 27 31 30 31 34 28 32 29 27 23 24 33 38 39
71 70 68 65 62 61 57 51 13 13 9 6 9 11 14 13 10 11 15 14 15 16 12 16 20 22 25 25 24 27 30 31 31 31 30 29 32 31 29 27 23 26 33 35 36
68 67 64 64 61 59 55 49 14 12 8 6 9 11 19 13 11 14 18 21 15 14 13 16 19 20 23 25 27 26 30 33 31 31 32 32 31 30 27 26 28 32 35 34 34
66 66 63 61 58 58 56 43 14 9 8 7 10 17 14 11 14 17 19 18 16 17 15 16 19 21 23 29 25 27 34 32 31 32 33 29 35 33 27 27 32 34 33 32 30
63 65 62 58 56 56 54 32 12 9 11 7 10 18 13 12 13 19 20 22 22 21 21 22 22 21 23 25 26 27 27 31 31 31 29 30 29 28 27 28 31 33 33 31 27
55 60 61 58 55 57 48 19 10 11 9 10 15 15 11 15 14 18 19 20 21 22 23 24 23 26 28 29 30 26 25 25 33 27 27 31 22 26 27 27 28 30 29 28 26
49 51 58 58 57 58 29 21 10 12 13 11 9 11 10 10 13 18 20 20 20 22 23 22 22 27 25 24 25 24 22 20 25 26 24 26 22 16 24 27 26 28 26 26 25
47 45 48 53 57 55 26 22 16 16 13 13 10 10 10 10 14 16 14 18 19 18 20 19 20 22 20 18 16 14 15 17 16 19 22 20 18 14 16 23 26 24 24 23 23
44 43 39 47 55 46 34 27 35 42 27 12 12 11 10 11 16 15 14 21 21 22 18 20 21 16 15 18 18 14 15 14 16 20 21 17 16 12 10 16 18 20 19 19 20
42 40 41 36 53 67 35 40 42 44 36 14 8 8 8 11 14 15 14 19 21 22 20 19 23 21 21 18 16 14 13 13 15 18 18 16 14 10 8 9 13 14 14 15 17
42 37 42 43 62 70 36 42 46 57 32 17 10 7 7 9 15 9 12 17 20 20 18 17 18 25 19 17 15 17 12 14 14 17 15 14 12 8 7 8 11 14 14 14 15
42 38 36 80 90 57 51 55 48 60 96 15 8 7 5 8 10 12 11 15 20 20 20 18 18 27 20 19 20 18 14 14 14 14 14 11 13 7 8 9 10 12 12 13 14
42 38 33 58 76 70 69 63 43 56 100 16 9 8 10 8 8 9 13 14 15 20 19 18 13 21 20 17 18 14 14 15 15 16 21 14 13 7 8 10 9 10 11 12 13
41 35 37 54 62 82 86 41 49 99 19 14 11 10 9 10 8 9 15 18 21 28 24 19 16 14 13 19 14 15 18 30 27 25 28 14 12 9 12 13 14 15 15 15 14
41 44 65 55 68 87 76 35 98 31 18 12 10 10 11 9 9 9 10 14 14 15 18 23 25 16 13 16 18 17 18 34 40 28 18 14 12 17 12 14 13 14 16 17 18
45 51 57 59 82 88 75 97 72 31 14 13 11 12 12 10 12 11 12 12 14 15 20 21 19 14 14 14 14 17 23 18 26 29 27 17 14 18 10 12 13 15 17 18 18
56 55 44 70 94 96 80 82 42 22 11 12 15 12 14 13 12 13 11 10 10 14 14 17 25 16 16 16 18 22 20 28 30 77 34 21 17 13 13 13 12 15 18 19 18
67 47 80 85 94 78 94 64 39 22 14 17 14 14 13 13 12 13 11 12 10 15 16 16 23 22 17 19 19 24 22 23 32 30 34 29 18 13 12 13 15 16 19 23 26
50 49 82 93 77 56 69 44 44 35 18 16 16 16 15 12 14 13 13 11 10 12 19 15 21 26 19 18 17 19 21 22 51 35 31 31 24 15 15 16 17 18 25 29 32
42 44 84 81 79 55 42 39 40 39 32 24 18 15 15 16 17 14 13 20 14 14 14 18 23 32 20 21 21 20 21 42 52 32 33 37 24 17 18 18 17 23 29 33 34
45 95 56 80 59 60 42 41 46 38 38 27 23 19 18 19 15 19 16 23 21 16 38 25 16 24 30 22 31 48 26 66 50 41 31 20 16 19 18 17 18 24 31 35 35
40 76 57 96 88 63 50 37 40 41 42 42 44 25 23 23 20 20 17 23 23 40 25 22 30 24 20 15 14 16 22 32 55 27 25 20 13 10 15 21 23 25 30 33 34
64 61 60 66 54 53 60 56 45 34 34 44 53 36 26 26 20 21 17 21 21 22 22 22 29 23 30 14 14 16 19 19 22 20 17 16 18 18 20 21 27 29 30 34 36
47 53 67 57 48 49 47 49 46 43 32 33 48 43 39 30 33 30 25 17 18 24 25 25 29 30 34 22 21 33 23 21 21 18 22 28 22 21 21 30 34 35 34 36 38
Wind_Speed
23 22 22 23 25 26 27 25 23 20 17 15 13 12 9 4 7 7 6 7 5 9 10 11 13 11 10 3 3 6 7 5 6 11 12 15 12 9 7 10 6 5 3 17 18
23 24 23 23 24 26 28 27 26 21 17 14 12 11 10 3 7 13 4 2 5 11 13 13 12 11 10 3 2 7 9 14 7 9 14 16 13 12 9 10 8 8 7 18 18
23 25 25 24 24 26 27 28 26 23 18 12 10 11 9 4 10 7 8 6 6 14 16 14 8 11 6 4 1 1 9 7 6 3 15 16 10 10 10 11 12 13 17 18 16
22 24 25 25 25 27 27 29 27 23 19 12 8 10 6 5 3 6 6 9 8 14 14 14 11 11 6 3 2 6 5 5 6 8 13 12 12 8 10 6 11 13 19 18 15
21 24 25 26 26 26 29 29 28 24 16 11 8 9 2 10 3 3 8 9 7 16 16 11 10 8 6 1 5 9 9 10 10 8 9 7 9 6 11 4 5 16 17 15 14
19 22 26 27 27 28 29 30 29 21 12 9 8 7 7 14 5 5 4 7 11 16 17 14 11 3 3 2 7 9 11 12 10 10 6 9 8 6 9 7 12 15 14 13 13
19 20 23 27 28 29 29 30 29 15 9 8 7 6 10 1 3 4 7 8 11 15 10 8 5 10 7 5 9 13 14 9 9 10 10 7 10 11 13 13 14 15 13 13 13
20 20 22 25 29 30 29 29 23 9 9 6 7 6 5 1 1 0 7 5 7 8 2 3 2 1 7 10 11 10 11 9 11 11 7 9 12 16 14 16 16 15 14 13 14
20 20 19 24 28 31 29 28 10 9 6 4 4 5 4 5 4 4 5 9 11 10 11 8 4 3 8 13 11 12 10 12 12 14 11 14 4 17 16 16 15 15 15 14 14
21 20 20 22 27 30 28 17 5 5 5 5 5 5 4 5 5 6 7 10 9 13 9 7 6 9 11 12 12 14 15 8 11 17 13 16 15 13 16 17 17 16 16 15 15
22 21 20 20 24 26 26 11 5 6 4 6 4 4 1 2 4 10 4 7 10 7 10 7 10 11 16 17 10 10 10 9 9 12 13 15 15 15 16 17 17 17 17 16 16
22 22 19 18 20 17 13 5 6 5 7 5 5 6 5 3 6 9 4 9 8 12 5 7 12 10 10 4 10 11 8 9 7 7 10 14 17 16 15 19 17 17 17 16 15
22 22 19 15 15 6 8 8 7 4 6 5 8 7 5 8 8 12 5 9 9 12 10 13 11 9 4 6 7 7 9 5 8 9 12 13 18 19 15 16 16 16 15 15 16
22 23 18 10 6 6 2 8 7 2 5 9 8 7 8 6 7 3 3 4 6 10 10 10 4 6 8 8 5 10 4 9 4 7 6 8 10 10 7 12 16 15 14 15 15
21 22 19 7 10 4 5 9 5 3 3 2 8 4 7 11 7 11 6 6 11 11 6 2 5 12 13 9 3 4 5 6 6 9 9 11 7 4 8 8 9 10 13 15 17
21 21 21 4 7 7 9 9 3 2 7 6 5 10 11 14 8 7 9 4 2 6 7 2 2 8 11 2 3 1 2 3 5 8 9 14 5 1 6 7 2 3 2 8 16
21 21 16 11 1 8 10 4 4 4 3 8 7 8 15 11 12 12 13 14 11 11 11 5 8 4 4 8 3 9 6 5 6 7 8 4 4 4 7 6 6 5 7 5 4
23 17 10 11 6 9 7 6 5 7 10 2 4 8 12 11 14 13 12 14 18 16 9 11 9 12 8 8 6 11 12 6 6 6 2 4 5 5 6 6 7 10 11 10 6
20 10 8 5 6 6 7 5 7 9 5 5 6 8 11 11 5 11 15 15 14 15 12 9 9 6 3 3 4 6 6 5 8 4 6 9 5 6 4 8 9 11 12 12 9
15 9 5 2 5 7 5 9 12 5 1 7 11 9 12 14 11 10 11 7 12 12 15 5 5 4 6 4 4 6 3 4 3 1 8 8 6 3 9 9 8 9 10 10 9
7 4 5 3 5 5 8 10 12 6 6 5 9 6 8 5 11 11 4 5 10 11 9 12 9 7 4 10 10 6 8 5 3 5 4 8 4 6 9 6 6 9 9 9 9
4 4 4 5 7 9 11 15 4 14 7 6 5 7 8 7 7 9 8 4 5 8 11 10 6 10 9 5 2 7 10 12 4 6 4 5 6 2 6 6 5 7 9 8 9
3 4 4 8 7 11 12 17 12 16 13 8 8 8 4 7 5 9 5 7 5 8 5 9 7 5 7 5 5 7 10 0 3 4 10 7 4 6 7 7 7 7 7 8 8
3 2 2 3 8 11 16 15 18 14 13 10 6 5 8 9 8 2 6 3 3 8 6 3 7 11 7 3 8 4 9 4 5 5 9 13 14 9 10 4 4 4 5 7 7
4 4 2 3 7 13 12 11 19 19 14 6 8 11 11 9 11 11 9 6 7 6 4 6 7 9 4 5 6 5 8 12 11 16 10 13 13 8 7 8 4 3 5 6 8
2 3 3 7 6 14 13 11 17 17 16 18 14 12 6 12 10 8 12 10 9 10 12 7 5 6 7 8 9 11 9 11 16 16 17 16 14 7 7 5 4 3 8 9 10
7 2 3 7 10 9 13 16 10 16 15 11 15 14 11 4 14 15 14 5 9 10 14 10 6 5 6 5 5 8 15 17 17 15 10 13 9 8 5 5 4 7 9 11 13
Wind_Direction
1 3 5 6 6 3 0 358 353 350 349 343 342 348 349 289 235 239 250 105 150 178 181 201 224 230 240 209 263 278 255 181 129 182 131 146 173 182 38 126 185 121 335 131 145
357 356 356 359 1 0 357 354 350 345 343 341 338 338 336 304 239 234 187 206 224 191 201 208 218 220 225 223 188 276 283 53 21 53 149 167 184 157 179 157 169 149 144 133 154
351 350 349 351 354 354 353 352 347 342 334 336 336 330 320 261 248 200 203 268 238 204 220 235 247 229 260 277 357 44 29 90 65 65 144 168 166 165 190 185 177 167 154 155 164
344 348 349 348 348 346 348 349 344 338 327 327 329 325 300 215 247 114 266 281 230 204 230 231 213 228 248 274 195 136 62 82 93 135 154 168 132 168 210 114 154 151 158 164 174
341 345 347 346 344 341 342 344 342 333 322 317 319 321 237 217 251 352 305 267 200 187 222 215 219 239 239 88 125 105 107 110 119 129 153 139 157 186 218 121 149 140 164 173 179
334 340 343 344 343 341 339 339 339 327 316 311 309 314 237 251 356 313 248 203 203 205 219 223 241 326 77 12 304 123 133 129 145 127 139 186 150 241 144 153 145 160 176 179 184
324 332 337 340 340 339 337 336 337 321 311 307 306 305 252 325 5 314 181 198 218 218 224 224 282 204 141 128 126 134 138 145 158 161 156 221 182 207 136 165 167 178 183 184 186
325 324 330 336 339 338 336 335 333 313 307 301 299 283 272 217 326 117 161 182 196 215 178 137 254 158 223 124 152 175 174 174 166 168 145 222 199 184 162 174 182 190 191 191 187
328 319 325 333 338 337 336 334 323 316 302 301 280 245 203 173 179 150 182 124 113 116 116 130 172 169 159 178 182 195 221 225 167 196 157 212 127 152 175 188 191 196 198 198 192
342 318 317 327 337 339 337 341 309 330 301 258 253 238 188 190 120 133 120 146 135 139 153 191 183 181 211 205 211 186 241 196 198 192 217 204 246 149 184 200 204 198 205 200 203
346 332 310 316 334 344 345 334 265 194 292 327 360 319 255 126 179 194 147 179 169 219 235 209 237 222 210 225 295 301 239 207 218 151 211 231 237 229 183 206 212 207 207 206 204
347 344 315 307 328 354 1 37 38 340 299 233 255 259 229 251 190 187 197 203 210 233 185 222 236 248 249 261 270 252 231 230 155 137 230 251 242 233 204 205 216 216 211 213 203
349 345 337 304 323 351 38 32 335 306 257 182 221 234 193 203 211 186 218 218 225 236 237 263 20 77 188 208 237 240 251 222 263 170 236 279 268 245 220 212 203 225 229 214 208
349 346 343 316 293 330 84 354 341 287 261 159 201 198 191 206 226 130 209 235 216 252 242 257 111 201 203 218 255 261 247 307 189 224 275 191 299 178 198 205 198 215 220 232 216
347 346 340 353 312 300 358 337 337 271 276 195 151 73 166 196 109 178 178 199 234 212 232 231 222 212 209 214 310 13 323 271 251 258 316 240 257 180 131 189 203 216 232 226 225
340 343 338 357 280 294 319 320 258 231 241 182 180 195 185 211 207 122 182 214 267 197 231 23 320 231 234 112 275 13 220 230 258 265 264 265 234 261 102 49 134 95 250 230 221
335 331 316 283 224 327 317 247 217 214 237 175 197 186 206 187 199 199 186 195 200 208 217 186 199 163 233 223 215 220 222 254 231 215 254 48 254 352 74 60 35 36 30 352 237
332 332 310 249 264 301 279 210 212 233 227 59 200 198 207 194 212 209 209 215 213 217 231 211 191 192 167 237 273 216 233 221 262 284 241 145 248 90 88 89 89 71 63 60 68
340 324 288 268 242 261 242 200 202 242 284 209 186 200 197 187 263 213 224 225 202 219 221 217 216 117 180 186 247 173 226 297 281 263 282 272 203 182 155 126 108 84 69 61 62
334 319 254 258 238 233 240 225 223 277 297 258 228 212 201 191 200 198 205 232 231 201 234 223 213 206 135 196 202 275 38 217 219 228 260 261 254 273 161 136 111 71 60 48 47
308 284 86 186 182 214 221 225 222 231 273 246 242 224 255 184 203 200 204 143 228 187 231 231 233 140 173 205 212 187 220 220 274 237 268 279 279 5 136 131 86 61 40 35 40
291 238 76 152 203 216 228 220 265 238 229 247 277 280 264 216 227 231 235 239 176 190 209 208 239 227 218 98 310 298 239 215 199 222 240 287 268 192 118 122 49 20 58 60 61
265 311 65 186 216 228 223 220 230 236 216 217 228 233 212 250 241 225 238 72 191 212 221 161 225 211 205 181 193 224 215 341 316 270 244 239 265 179 153 162 52 47 60 66 58
292 286 215 195 267 275 228 221 213 233 265 205 261 288 223 234 240 263 207 142 219 232 27 288 229 208 238 16 125 195 197 173 206 228 239 248 253 177 199 162 81 57 75 66 77
225 253 333 218 216 244 261 246 226 218 221 212 242 241 232 235 230 223 242 155 199 159 215 233 227 233 247 230 223 212 198 190 202 226 231 252 252 257 20 64 77 78 117 106 93
247 298 339 289 274 206 239 255 256 218 222 220 243 223 260 263 240 237 231 215 209 180 208 213 241 213 236 235 246 250 242 228 222 239 240 251 264 43 87 83 76 100 117 109 104
269 197 285 288 236 250 219 228 248 257 234 238 211 223 227 297 329 314 319 242 242 186 205 200 222 199 232 210 256 264 244 247 249 230 254 261 268 125 155 98 87 106 113 116 116